Regional Weather Roundup
Issued by NWS

Home | Current Version | Previous Version | Graphics & Text | Print | Product List | Glossary On
Versions: 1 2 3 4 5 6 7 8 9 10 11 12 13 14 15 16 17 18 19 20 21 22 23 24 25 26 27 28 29 30 31 32 33 34 35 36 37 38 39 40 41 42 43 44 45 46 47 48 49 50
000
ASUS43 KLOT 282258
RWRIL

ILLINOIS REGIONAL WEATHER ROUNDUP
NATIONAL WEATHER SERVICE CHICAGO/ROMEOVILLE IL
500 PM CST FRI NOV 28 2014

NOTE: "FAIR" INDICATES FEW OR NO CLOUDS BELOW 12,000 FEET WITH NO
SIGNIFICANT WEATHER AND/OR OBSTRUCTIONS TO VISIBILITY.

* THESE STATIONS ARE NOT UNDER NWS QUALITY CONTROL. THEY ALSO MAY NOT
  REPORT WEATHER SUCH AS PRECIPITATION OR FOG.

ILZ001-002-007-009-015-016-024-290000-
NORTHWEST ILLINOIS

CITY           SKY/WX    TMP DP  RH WIND       PRES   REMARKS
MOLINE         MOCLDY    33  28  81 E8        29.89F WCI  26
$$

ILZ003-004-008-010-011-017-018-290000-
NORTH CENTRAL ILLINOIS

CITY           SKY/WX    TMP DP  RH WIND       PRES   REMARKS
ROCKFORD       NOT AVBL
$$

ILZ005-006-012>014-019>023-290000-
NORTHEAST ILLINOIS

CITY           SKY/WX    TMP DP  RH WIND       PRES   REMARKS
CHICAGO-OHARE  CLOUDY    31  25  78 S13       29.97F WCI  21
CHICAGO-MIDWAY NOT AVBL
AURORA         CLOUDY    32  26  78 SE8       29.97S WCI  25
WAUKEGAN       NOT AVBL
DUPAGE AIRPORT CLOUDY    31  26  82 S13       29.97S WCI  21
WHEELING       CLOUDY    31  24  75 S10       30.01R WCI  22
NORTHERLY ISL    N/A     32  23  70 S13         N/A  WCI  22
$$

LMZ740>746-290000-
SOUTHERN LAKE MICHIGAN

STATION/POSITION SKY/WX   TEMP    WIND        PRES    VSBY  WAVE
                          AIR SEA DIR/SP/G                  HT/PER
                          (F)     (DEG/KT/KT) (MB)    (MI)  (FT/S)
SOUTHERN BUOY              33 42  160/ 21/ 25 1016.7F         6/ 6
WAUKEGAN HARBOR            32     190/ 16/ 19   N/A
HARRISON CRIB              31     170/ 20/ 24   N/A
BURNHAM HARBOR             32     160/ 11/ 18   N/A
CALUMET HARBOR             32     160/  9/ 16 1015.1R
MICHIGAN CITY              30     140/ 15/ 19   N/A
$$

ILZ025>027-034>036-040-047-049-050-058-095>099-290000-
WEST-CENTRAL ILLINOIS

CITY           SKY/WX    TMP DP  RH WIND       PRES   REMARKS
$$

ILZ028>032-037-038-041>044-048-051>054-059>061-290000-
CENTRAL ILLINOIS

CITY           SKY/WX    TMP DP  RH WIND       PRES   REMARKS
PEORIA         NOT AVBL
SPRINGFIELD    PTCLDY    40  32  73 S18       29.94F
TAYLORVILLE    NOT AVBL
$$

ILZ033-039-045-046-055>057-062-063-290000-
EAST-CENTRAL ILLINOIS

CITY           SKY/WX    TMP DP  RH WIND       PRES   REMARKS
$$

ILZ079-100>102-290000-
SOUTHWEST ILLINOIS

CITY           SKY/WX    TMP DP  RH WIND       PRES   REMARKS
$$

ILZ064>066-069>071-074>076-080>082-084>086-088>090-092>094-290000-
SOUTH-CENTRAL ILLINOIS

CITY           SKY/WX    TMP DP  RH WIND       PRES   REMARKS
CARBONDALE     PTCLDY    44  29  55 S14       30.04F
MARION         PTCLDY    45  30  57 S12       30.06F
$$

ILZ067-068-072-073-078-083-087-091-290000-
SOUTHEAST ILLINOIS

CITY           SKY/WX    TMP DP  RH WIND       PRES   REMARKS
$$

ABBREVIATIONS USED IN REMARKS
   TC - TEMPERATURE IN CELSIUS
  WCI - WIND CHILL INDEX
   HX - HEAT INDEX
  VSB - VISIBILITY
$$



USA.gov is the U.S. government's official web portal to all federal, state and local government web resources and services.